This is the latest recevied weather packets stored in our database for station/object SV9FBP. If no packets are shown the sender has not sent any weather packets the latest 10 day(s).
| Time | Temp. | Humidity | Pressure | Rain* | Wind** | Luminosity | Snow |
|---|---|---|---|---|---|---|---|
| 1778168611 | 21.11° C | 58% | 1017.3 hPa | 0 mm | - | - | - |
| 1778167708 | 21.67° C | 59% | 1017.4 hPa | 0 mm | - | - | - |
| 1778166809 | 21.67° C | 59% | 1017.6 hPa | 0 mm | - | - | - |
| 1778165903 | 21.67° C | 56% | 1018 hPa | 0 mm | - | - | - |
| 1778165003 | 21.67° C | 53% | 1018 hPa | 0 mm | - | - | - |
| 1778164099 | 22.22° C | 54% | 1017.9 hPa | 0 mm | - | - | - |
| 1778163197 | 22.78° C | 52% | 1018 hPa | 0 mm | - | - | - |
| 1778162295 | 22.78° C | 53% | 1018 hPa | 0 mm | - | - | - |
| 1778161394 | 22.78° C | 51% | 1017.8 hPa | 0 mm | - | - | - |
| 1778160491 | 23.33° C | 47% | 1017.9 hPa | 0 mm | - | - | - |
| 1778159589 | 23.33° C | 44% | 1017.9 hPa | 0 mm | - | - | - |
| 1778158687 | 23.89° C | 45% | 1018.1 hPa | 0 mm | - | - | - |
| 1778157785 | 23.89° C | 43% | 1018.4 hPa | 0 mm | - | - | - |
| 1778156883 | 23.89° C | 36% | 1018.3 hPa | 0 mm | - | - | - |
| 1778155981 | 24.44° C | 43% | 1018.4 hPa | 0 mm | - | - | - |
| 1778155078 | 24.44° C | 43% | 1018.5 hPa | 0 mm | - | - | - |
| 1778154176 | 24.44° C | 50% | 1018.4 hPa | 0 mm | - | - | - |
| 1778153273 | 25° C | 52% | 1018.2 hPa | 0 mm | - | - | - |
| 1778152371 | 24.44° C | 50% | 1018.4 hPa | 0 mm | - | - | - |
| 1778151470 | 24.44° C | 55% | 1018.2 hPa | 0 mm | - | - | - |
| 1778150567 | 24.44° C | 61% | 1018.2 hPa | 0 mm | - | - | - |
| 1778149665 | 23.33° C | 63% | 1018.4 hPa | 0 mm | - | - | - |
| 1778148763 | 22.22° C | 70% | 1018.6 hPa | 0 mm | - | - | - |
| 1778147861 | 21.67° C | 71% | 1018.7 hPa | 0 mm | - | - | - |
| 1778146958 | 21.67° C | 71% | 1018.8 hPa | 0 mm | - | - | - |
* Rain latest hour (hover to see other rain measurements)
** Current wind speed in m/s (hover to see current wind gust speed)